When you browse on this site, cookies collect data to enhance your experience and personalize the content and advertising you see.
Visit our Privacy Policy to learn more. By continuing to use the site, you agree to this use of cookies and data.
  • In Hungary
  • List of Countries
  • For 7 days
  • Water Temperature
  • Weather Map
  • News
  • Weather Widgets
  • user-avatar
    Login

    Hourly Weather Pawelki

    Today, 2 April, Thursday

    Time Temperature Precipitation Wind Pressure Humidity
    00:00 -1°C° 0 mm 3 mps 745 mmHg 64%
    01:00 -1°C° 0 mm 3 mps 745 mmHg 65%
    02:00 -1°C° 0 mm 3 mps 745 mmHg 64%
    03:00 -2°C° 0 mm 3 mps 744 mmHg 63%
    04:00 -2°C° 0 mm 3 mps 744 mmHg 63%
    05:00 -1°C° 0 mm 3 mps 744 mmHg 61%
    06:00 0°C° 0 mm 3 mps 744 mmHg 60%
    07:00 0°C° 0 mm 4 mps 745 mmHg 60%
    08:00 +3°C° 0 mm 4 mps 744 mmHg 58%
    09:00 +5°C° 0 mm 4 mps 744 mmHg 56%
    10:00 +6°C° 0 mm 5 mps 743 mmHg 54%
    11:00 +7°C° 0 mm 5 mps 743 mmHg 53%
    12:00 +7°C° 0 mm 5 mps 743 mmHg 52%
    13:00 +8°C° 0 mm 5 mps 743 mmHg 52%
    14:00 +8°C° 0 mm 4 mps 742 mmHg 52%
    15:00 +8°C° 0 mm 4 mps 742 mmHg 52%
    16:00 +8°C° 0 mm 4 mps 741 mmHg 52%
    17:00 +8°C° 0 mm 3 mps 741 mmHg 58%
    18:00 +6°C° 0 mm 2 mps 741 mmHg 64%
    19:00 +5°C° 0 mm 2 mps 740 mmHg 69%
    20:00 +4°C° 0 mm 2 mps 740 mmHg 71%
    21:00 +4°C° 0 mm 2 mps 740 mmHg 72%
    22:00 +2°C° 0 mm 3 mps 740 mmHg 74%
    23:00 +2°C° 0 mm 3 mps 740 mmHg 72%

    Tomorrow, 3 April, Friday

    Time Temperature Precipitation Wind Pressure Humidity
    00:00 +2°C° 0 mm 3 mps 739 mmHg 71%
    01:00 +1°C° 0 mm 4 mps 739 mmHg 70%
    02:00 +1°C° 0 mm 4 mps 739 mmHg 72%
    03:00 0°C° 0 mm 4 mps 739 mmHg 74%
    04:00 0°C° 0 mm 4 mps 739 mmHg 76%
    05:00 +1°C° 0 mm 5 mps 739 mmHg 76%
    06:00 +2°C° 0 mm 6 mps 740 mmHg 76%
    07:00 +2°C° 0 mm 6 mps 741 mmHg 76%
    08:00 +3°C° 0 mm 6 mps 741 mmHg 75%
    09:00 +3°C° 0 mm 6 mps 741 mmHg 74%
    10:00 +4°C° 0 mm 6 mps 742 mmHg 73%
    11:00 +5°C° 0 mm 6 mps 742 mmHg 64%
    12:00 +7°C° 0 mm 6 mps 743 mmHg 56%
    13:00 +8°C° 0 mm 7 mps 743 mmHg 47%
    14:00 +8°C° 0 mm 6 mps 744 mmHg 47%
    15:00 +8°C° 0 mm 6 mps 744 mmHg 47%
    16:00 +8°C° 0 mm 5 mps 744 mmHg 46%
    17:00 +6°C° 0 mm 4 mps 744 mmHg 52%
    18:00 +5°C° 0 mm 3 mps 745 mmHg 57%
    19:00 +5°C° 0 mm 2 mps 745 mmHg 63%
    20:00 +4°C° 0 mm 2 mps 746 mmHg 67%
    21:00 +4°C° 0 mm 2 mps 746 mmHg 70%
    22:00 +3°C° 0 mm 2 mps 747 mmHg 74%
    23:00 +3°C° 0 mm 2 mps 748 mmHg 77%

    Day after tomorrow, 4 April, Saturday

    Time Temperature Precipitation Wind Pressure Humidity
    00:00 +3°C° 0 mm 2 mps 748 mmHg 80%
    01:00 +2°C° 0 mm 2 mps 748 mmHg 83%
    02:00 +2°C° 0 mm 2 mps 749 mmHg 86%
    03:00 +1°C° 0 mm 2 mps 749 mmHg 89%
    04:00 +1°C° 0 mm 2 mps 750 mmHg 92%
    05:00 +1°C° 0 mm 2 mps 750 mmHg 90%
    06:00 +1°C° 0 mm 3 mps 751 mmHg 88%
    07:00 +2°C° 0 mm 3 mps 752 mmHg 85%
    08:00 +3°C° 0 mm 3 mps 752 mmHg 77%
    09:00 +4°C° 0 mm 3 mps 753 mmHg 68%
    10:00 +7°C° 0 mm 3 mps 753 mmHg 59%
    11:00 +7°C° 0.1 mm 3 mps 753 mmHg 56%
    12:00 +8°C° 0.1 mm 3 mps 754 mmHg 53%
    13:00 +8°C° 0.1 mm 3 mps 754 mmHg 49%
    14:00 +8°C° 0 mm 3 mps 754 mmHg 48%
    15:00 +9°C° 0 mm 3 mps 754 mmHg 47%
    16:00 +9°C° 0 mm 3 mps 754 mmHg 46%
    17:00 +7°C° 0 mm 2 mps 755 mmHg 50%
    18:00 +6°C° 0 mm 2 mps 755 mmHg 53%
    19:00 +5°C° 0 mm 2 mps 756 mmHg 57%
    20:00 +5°C° 0 mm 1 mps 757 mmHg 57%
    21:00 +4°C° 0 mm 1 mps 757 mmHg 57%
    22:00 +4°C° 0 mm 1 mps 758 mmHg 57%
    23:00 +3°C° 0 mm 1 mps 758 mmHg 59%

    5 April, Sunday

    Time Temperature Precipitation Wind Pressure Humidity
    00:00 +2°C° 0 mm 2 mps 759 mmHg 60%
    01:00 +2°C° 0 mm 2 mps 759 mmHg 61%
    02:00 +1°C° 0 mm 2 mps 759 mmHg 63%
    03:00 +1°C° 0 mm 2 mps 759 mmHg 66%
    04:00 -1°C° 0 mm 2 mps 759 mmHg 68%
    05:00 0°C° 0 mm 3 mps 760 mmHg 66%
    06:00 +1°C° 0 mm 3 mps 760 mmHg 64%
    07:00 +2°C° 0 mm 3 mps 760 mmHg 62%
    08:00 +4°C° 0 mm 3 mps 760 mmHg 56%
    09:00 +6°C° 0 mm 4 mps 760 mmHg 51%
    10:00 +7°C° 0 mm 4 mps 760 mmHg 45%
    11:00 +8°C° 0 mm 4 mps 760 mmHg 44%
    12:00 +9°C° 0 mm 5 mps 760 mmHg 42%
    13:00 +10°C° 0 mm 5 mps 759 mmHg 41%
    14:00 +10°C° 0 mm 5 mps 759 mmHg 42%
    15:00 +10°C° 0 mm 5 mps 758 mmHg 42%
    16:00 +10°C° 0 mm 5 mps 758 mmHg 43%
    17:00 +8°C° 0 mm 5 mps 758 mmHg 47%
    18:00 +7°C° 0 mm 5 mps 758 mmHg 51%
    19:00 +5°C° 0 mm 4 mps 758 mmHg 55%
    20:00 +5°C° 0 mm 4 mps 758 mmHg 55%
    21:00 +3°C° 0 mm 5 mps 758 mmHg 55%
    22:00 +3°C° 0 mm 5 mps 758 mmHg 55%
    23:00 +2°C° 0 mm 5 mps 758 mmHg 57%

    6 April, Monday

    Time Temperature Precipitation Wind Pressure Humidity
    00:00 +3°C° 0 mm 4 mps 758 mmHg 58%
    01:00 +3°C° 0 mm 4 mps 757 mmHg 60%
    02:00 +1°C° 0 mm 4 mps 757 mmHg 62%
    03:00 +1°C° 0 mm 4 mps 757 mmHg 65%
    04:00 +1°C° 0 mm 4 mps 757 mmHg 67%
    05:00 +3°C° 0 mm 4 mps 757 mmHg 65%
    06:00 +3°C° 0 mm 5 mps 757 mmHg 62%
    07:00 +5°C° 0 mm 5 mps 757 mmHg 60%
    08:00 +8°C° 0 mm 6 mps 757 mmHg 56%
    09:00 +10°C° 0 mm 7 mps 757 mmHg 53%
    10:00 +12°C° 0 mm 7 mps 757 mmHg 49%
    11:00 +13°C° 0 mm 8 mps 757 mmHg 47%
    12:00 +15°C° 0 mm 8 mps 756 mmHg 46%
    13:00 +16°C° 0 mm 8 mps 756 mmHg 44%
    14:00 +16°C° 0 mm 8 mps 756 mmHg 45%
    15:00 +15°C° 0 mm 8 mps 756 mmHg 46%
    16:00 +15°C° 0 mm 8 mps 756 mmHg 47%
    17:00 +12°C° 0 mm 8 mps 756 mmHg 50%
    18:00 +11°C° 0 mm 7 mps 756 mmHg 52%
    19:00 +9°C° 0 mm 6 mps 756 mmHg 54%
    20:00 +9°C° 0 mm 6 mps 756 mmHg 54%
    21:00 +8°C° 0 mm 6 mps 756 mmHg 54%
    22:00 +7°C° 0 mm 5 mps 757 mmHg 55%
    23:00 +7°C° 0 mm 5 mps 757 mmHg 55%

    7 April, Tuesday

    Time Temperature Precipitation Wind Pressure Humidity
    00:00 +6°C° 0 mm 5 mps 757 mmHg 56%
    01:00 +6°C° 0 mm 4 mps 757 mmHg 56%
    02:00 +5°C° 0 mm 5 mps 757 mmHg 55%
    03:00 +5°C° 0 mm 5 mps 757 mmHg 53%
    04:00 +3°C° 0 mm 5 mps 757 mmHg 51%
    05:00 +5°C° 0 mm 5 mps 758 mmHg 49%
    06:00 +5°C° 0 mm 6 mps 758 mmHg 46%
    07:00 +5°C° 0 mm 6 mps 758 mmHg 44%
    08:00 +8°C° 0 mm 6 mps 758 mmHg 41%
    09:00 +10°C° 0 mm 6 mps 758 mmHg 39%
    10:00 +13°C° 0 mm 6 mps 759 mmHg 36%
    11:00 +14°C° 0 mm 5 mps 759 mmHg 36%
    12:00 +15°C° 0 mm 5 mps 759 mmHg 37%
    13:00 +17°C° 0 mm 4 mps 759 mmHg 38%
    14:00 +17°C° 0 mm 4 mps 759 mmHg 40%
    15:00 +17°C° 0 mm 3 mps 759 mmHg 42%
    16:00 +18°C° 0 mm 3 mps 759 mmHg 44%
    17:00 +16°C° 0 mm 3 mps 759 mmHg 49%
    18:00 +13°C° 0 mm 3 mps 759 mmHg 55%
    19:00 +12°C° 0 mm 2 mps 759 mmHg 60%
    20:00 +10°C° 0 mm 2 mps 759 mmHg 61%
    21:00 +9°C° 0 mm 2 mps 759 mmHg 61%
    22:00 +9°C° 0 mm 2 mps 760 mmHg 62%
    23:00 +8°C° 0 mm 2 mps 760 mmHg 62%
    Show more